Time,TemperatureF,DewpointF,PressureIn,WindDirection,WindDirectionDegrees,WindSpeedMPH,WindSpeedGustMPH,Humidity,HourlyPrecipIn,Conditions,Clouds,dailyrainin,SoftwareType,DateUTC
2013-03-04 00:02:00,37.0,-99.9,-100.00,WSW,256,7.0,-999.0,-999,-99.99,,,-99.99,,2013-03-04 08:02:00,
2013-03-04 00:12:00,37.0,-99.9,-100.00,WSW,256,7.0,-999.0,-999,-99.99,,,-99.99,,2013-03-04 08:12:00,
2013-03-04 00:20:00,36.0,-99.9,-100.00,West,278,5.0,-999.0,-999,-99.99,,,-99.99,,2013-03-04 08:20:00,
2013-03-04 01:02:00,36.0,-99.9,-100.00,West,278,5.0,-999.0,-999,-99.99,,,-99.99,,2013-03-04 09:02:00,
2013-03-04 01:11:00,36.0,-99.9,-100.00,West,278,5.0,-999.0,-999,-99.99,,,-99.99,,2013-03-04 09:11:00,
2013-03-04 01:20:00,36.0,-99.9,-100.00,West,265,3.0,-999.0,-999,-99.99,,,-99.99,,2013-03-04 09:20:00,
2013-03-04 02:02:00,36.0,-99.9,-100.00,West,265,3.0,-999.0,-999,-99.99,,,-99.99,,2013-03-04 10:02:00,
2013-03-04 02:12:00,36.0,-99.9,-100.00,West,265,3.0,-999.0,-999,-99.99,,,-99.99,,2013-03-04 10:12:00,
2013-03-04 02:20:00,35.0,-99.9,-100.00,WNW,283,2.0,-999.0,-999,-99.99,,,-99.99,,2013-03-04 10:20:00,
2013-03-04 03:02:00,35.0,-99.9,-100.00,WNW,283,2.0,-999.0,-999,-99.99,,,-99.99,,2013-03-04 11:02:00,
2013-03-04 03:11:00,35.0,-99.9,-100.00,WNW,283,2.0,-999.0,-999,-99.99,,,-99.99,,2013-03-04 11:11:00,
2013-03-04 03:20:00,34.0,-99.9,-100.00,WNW,296,6.0,-999.0,-999,-99.99,,,-99.99,,2013-03-04 11:20:00,
2013-03-04 04:02:00,34.0,-99.9,-100.00,WNW,296,6.0,-999.0,-999,-99.99,,,-99.99,,2013-03-04 12:02:00,
2013-03-04 04:12:00,34.0,-99.9,-100.00,WNW,296,6.0,-999.0,-999,-99.99,,,-99.99,,2013-03-04 12:12:00,
2013-03-04 04:20:00,34.0,-99.9,-100.00,WSW,257,5.0,-999.0,-999,-99.99,,,-99.99,,2013-03-04 12:20:00,
2013-03-04 05:02:00,34.0,-99.9,-100.00,WSW,257,5.0,-999.0,-999,-99.99,,,-99.99,,2013-03-04 13:02:00,
2013-03-04 05:11:00,34.0,-99.9,-100.00,WSW,257,5.0,-999.0,-999,-99.99,,,-99.99,,2013-03-04 13:11:00,
2013-03-04 05:20:00,34.0,-99.9,-100.00,WNW,288,5.0,-999.0,-999,-99.99,,,-99.99,,2013-03-04 13:20:00,
2013-03-04 06:01:00,34.0,-99.9,-100.00,WNW,288,5.0,-999.0,-999,-99.99,,,-99.99,,2013-03-04 14:01:00,
2013-03-04 06:12:00,34.0,-99.9,-100.00,WNW,288,5.0,-999.0,-999,-99.99,,,-99.99,,2013-03-04 14:12:00,
2013-03-04 06:20:00,36.0,-99.9,-100.00,NW,319,2.0,-999.0,-999,-99.99,,,-99.99,,2013-03-04 14:20:00,
2013-03-04 07:02:00,36.0,-99.9,-100.00,NW,319,2.0,-999.0,-999,-99.99,,,-99.99,,2013-03-04 15:02:00,
2013-03-04 07:11:00,36.0,-99.9,-100.00,NW,319,2.0,-999.0,-999,-99.99,,,-99.99,,2013-03-04 15:11:00,
2013-03-04 07:20:00,35.0,-99.9,-100.00,WNW,288,5.0,-999.0,-999,-99.99,,,-99.99,,2013-03-04 15:20:00,
2013-03-04 08:03:00,35.0,-99.9,-100.00,WNW,288,5.0,-999.0,-999,-99.99,,,-99.99,,2013-03-04 16:03:00,
2013-03-04 08:11:00,35.0,-99.9,-100.00,WNW,288,5.0,-999.0,-999,-99.99,,,-99.99,,2013-03-04 16:11:00,
2013-03-04 08:20:00,39.0,-99.9,-100.00,North,6,2.0,-999.0,-999,-99.99,,,-99.99,,2013-03-04 16:20:00,
2013-03-04 09:02:00,39.0,-99.9,-100.00,North,6,2.0,-999.0,-999,-99.99,,,-99.99,,2013-03-04 17:02:00,
2013-03-04 09:11:00,39.0,-99.9,-100.00,North,6,2.0,-999.0,-999,-99.99,,,-99.99,,2013-03-04 17:11:00,
2013-03-04 09:20:00,41.0,-99.9,-100.00,NNW,335,8.0,-999.0,-999,-99.99,,,-99.99,,2013-03-04 17:20:00,
2013-03-04 10:02:00,41.0,-99.9,-100.00,NNW,335,8.0,-999.0,-999,-99.99,,,-99.99,,2013-03-04 18:02:00,
2013-03-04 10:11:00,41.0,-99.9,-100.00,NNW,335,8.0,-999.0,-999,-99.99,,,-99.99,,2013-03-04 18:11:00,
2013-03-04 10:20:00,44.0,-99.9,-100.00,North,10,13.0,-999.0,-999,-99.99,,,-99.99,,2013-03-04 18:20:00,
2013-03-04 11:02:00,44.0,-99.9,-100.00,North,10,13.0,-999.0,-999,-99.99,,,-99.99,,2013-03-04 19:02:00,
2013-03-04 11:12:00,44.0,-99.9,-100.00,North,10,13.0,-999.0,-999,-99.99,,,-99.99,,2013-03-04 19:12:00,
2013-03-04 11:20:00,45.0,-99.9,-100.00,NNW,341,9.0,-999.0,-999,-99.99,,,-99.99,,2013-03-04 19:20:00,
2013-03-04 12:02:00,45.0,-99.9,-100.00,NNW,341,9.0,-999.0,-999,-99.99,,,-99.99,,2013-03-04 20:02:00,
2013-03-04 12:12:00,45.0,-99.9,-100.00,NNW,341,9.0,-999.0,-999,-99.99,,,-99.99,,2013-03-04 20:12:00,
2013-03-04 12:20:00,46.0,-99.9,-100.00,North,359,12.0,-999.0,-999,-99.99,,,-99.99,,2013-03-04 20:20:00,
2013-03-04 13:02:00,46.0,-99.9,-100.00,North,359,12.0,-999.0,-999,-99.99,,,-99.99,,2013-03-04 21:02:00,
2013-03-04 13:12:00,46.0,-99.9,-100.00,North,359,12.0,-999.0,-999,-99.99,,,-99.99,,2013-03-04 21:12:00,
2013-03-04 13:20:00,48.0,-99.9,-100.00,North,350,14.0,-999.0,-999,-99.99,,,-99.99,,2013-03-04 21:20:00,
2013-03-04 14:02:00,48.0,-99.9,-100.00,North,350,14.0,-999.0,-999,-99.99,,,-99.99,,2013-03-04 22:02:00,
2013-03-04 14:12:00,48.0,-99.9,-100.00,North,350,14.0,-999.0,-999,-99.99,,,-99.99,,2013-03-04 22:12:00,
2013-03-04 14:20:00,52.0,-99.9,-100.00,North,358,13.0,-999.0,-999,-99.99,,,-99.99,,2013-03-04 22:20:00,
2013-03-04 15:02:00,52.0,-99.9,-100.00,North,358,13.0,-999.0,-999,-99.99,,,-99.99,,2013-03-04 23:02:00,
2013-03-04 15:12:00,52.0,-99.9,-100.00,North,358,13.0,-999.0,-999,-99.99,,,-99.99,,2013-03-04 23:12:00,
2013-03-04 15:20:00,52.0,-99.9,-100.00,NNW,342,14.0,-999.0,-999,-99.99,,,-99.99,,2013-03-04 23:20:00,
2013-03-04 16:02:00,52.0,-99.9,-100.00,NNW,342,14.0,-999.0,-999,-99.99,,,-99.99,,2013-03-05 00:02:00,
2013-03-04 16:12:00,52.0,-99.9,-100.00,NNW,342,14.0,-999.0,-999,-99.99,,,-99.99,,2013-03-05 00:12:00,
2013-03-04 16:20:00,53.0,-99.9,-100.00,NNW,344,14.0,-999.0,-999,-99.99,,,-99.99,,2013-03-05 00:20:00,
2013-03-04 17:02:00,53.0,-99.9,-100.00,NNW,344,14.0,-999.0,-999,-99.99,,,-99.99,,2013-03-05 01:02:00,
2013-03-04 17:12:00,53.0,-99.9,-100.00,NNW,344,14.0,-999.0,-999,-99.99,,,-99.99,,2013-03-05 01:12:00,
2013-03-04 17:20:00,51.0,-99.9,-100.00,NNW,339,8.0,-999.0,-999,-99.99,,,-99.99,,2013-03-05 01:20:00,
2013-03-04 18:02:00,51.0,-99.9,-100.00,NNW,339,8.0,-999.0,-999,-99.99,,,-99.99,,2013-03-05 02:02:00,
2013-03-04 18:12:00,51.0,-99.9,-100.00,NNW,339,8.0,-999.0,-999,-99.99,,,-99.99,,2013-03-05 02:12:00,
2013-03-04 18:20:00,48.0,-99.9,-100.00,NW,323,9.0,-999.0,-999,-99.99,,,-99.99,,2013-03-05 02:20:00,
2013-03-04 19:02:00,48.0,-99.9,-100.00,NW,323,9.0,-999.0,-999,-99.99,,,-99.99,,2013-03-05 03:02:00,
2013-03-04 19:12:00,48.0,-99.9,-100.00,NW,323,9.0,-999.0,-999,-99.99,,,-99.99,,2013-03-05 03:12:00,
2013-03-04 19:20:00,45.0,-99.9,-100.00,WSW,239,5.0,-999.0,-999,-99.99,,,-99.99,,2013-03-05 03:20:00,
2013-03-04 20:02:00,45.0,-99.9,-100.00,WSW,239,5.0,-999.0,-999,-99.99,,,-99.99,,2013-03-05 04:02:00,
2013-03-04 20:12:00,45.0,-99.9,-100.00,WSW,239,5.0,-999.0,-999,-99.99,,,-99.99,,2013-03-05 04:12:00,
2013-03-04 20:20:00,42.0,-99.9,-100.00,West,279,3.0,-999.0,-999,-99.99,,,-99.99,,2013-03-05 04:20:00,
2013-03-04 21:02:00,42.0,-99.9,-100.00,West,279,3.0,-999.0,-999,-99.99,,,-99.99,,2013-03-05 05:02:00,
2013-03-04 21:12:00,42.0,-99.9,-100.00,West,279,3.0,-999.0,-999,-99.99,,,-99.99,,2013-03-05 05:12:00,
2013-03-04 21:20:00,40.0,-99.9,-100.00,West,260,5.0,-999.0,-999,-99.99,,,-99.99,,2013-03-05 05:20:00,
2013-03-04 22:02:00,40.0,-99.9,-100.00,West,260,5.0,-999.0,-999,-99.99,,,-99.99,,2013-03-05 06:02:00,
2013-03-04 22:11:00,40.0,-99.9,-100.00,West,260,5.0,-999.0,-999,-99.99,,,-99.99,,2013-03-05 06:11:00,
2013-03-04 22:20:00,40.0,-99.9,-100.00,West,263,5.0,-999.0,-999,-99.99,,,-99.99,,2013-03-05 06:20:00,
2013-03-04 23:01:00,40.0,-99.9,-100.00,West,263,5.0,-999.0,-999,-99.99,,,-99.99,,2013-03-05 07:01:00,
2013-03-04 23:11:00,40.0,-99.9,-100.00,West,263,5.0,-999.0,-999,-99.99,,,-99.99,,2013-03-05 07:11:00,
2013-03-04 23:20:00,39.0,-99.9,-100.00,West,263,6.0,-999.0,-999,-99.99,,,-99.99,,2013-03-05 07:20:00,